Fergus Falls, MN

12:18 AM CST on November 22, 2017 (GMT -0600)
Fergus Falls Municipal-Mickelson

Weather History for KFFM - June, 2014

Change the Weather History Date:

Wednesday, June 25, 2014

  Actual Average Record
Temperature  
Mean Temperature 64 °F -  
Max Temperature 71 °F 77 °F 96 °F (2001)
Min Temperature 57 °F 56 °F 38 °F (1958)
Degree Days  
Heating Degree Days 1    
Growing Degree Days 14 (Base 50)    
Moisture  
Dew Point 57 °F    
Average Humidity 80    
Maximum Humidity 100    
Minimum Humidity 56    
Precipitation  
Precipitation 0.00 in - - ()
Sea Level Pressure  
Sea Level Pressure 29.99 in    
Wind  
Wind Speed 6 mph (East)    
Max Wind Speed 13 mph    
Max Gust Speed 17 mph    
Visibility 9 miles    
Events      
Averages and records for this station are not official NWS values.
T = Trace of Precipitation, MM = Missing Value Source: NWS Daily Summary

Daily Weather History Graph

Daily Weather History Graph

Search for Another Location

Airport or City:

Trip Planner

Search our weather history database for the weather conditions in past years. The results will help you decide how hot, cold, wet, or windy it might be!

Date:

Astronomy

Jun. 25, 2014 Rise Set
Actual Time 5:33 AM CDT 9:20 PM CDT
Civil Twilight 4:54 AM CDT 9:59 PM CDT
Nautical Twilight 4:02 AM CDT 10:52 PM CDT
Astronomical Twilight 2:47 AM CDT 12:06 AM CDT
Moon 4:31 AM CDT (6/25) 7:48 PM CDT (6/25)
Length of Visible Light 17h 04m
Length of Day
15h 46m
Waning Crescent, 3% of the Moon is Illuminated
Jun 25
Waning Crescent
Jun 27
New
Jul 5
First Quarter
Jul 12
Full
Jul 18
Last Quarter

Hourly Weather History & Observations

Time (CDT) Temp. Dew Point Humidity Pressure Visibility Wind Dir Wind Speed Gust Speed Precip Events Conditions
12:14 AM 62.6 °F 59.0 °F 88% 29.96 in 10.0 mi WNW 5.8 mph - N/A   Mostly Cloudy
12:34 AM 60.8 °F 59.0 °F 94% 29.97 in 10.0 mi NW 5.8 mph - N/A   Mostly Cloudy
12:54 AM 62.6 °F 59.0 °F 88% 29.97 in 10.0 mi NW 6.9 mph - N/A   Overcast
1:14 AM 62.6 °F 60.8 °F 94% 29.97 in 10.0 mi WNW 8.1 mph - N/A   Overcast
1:34 AM 62.6 °F 60.8 °F 94% 29.97 in 10.0 mi NW 6.9 mph - N/A   Overcast
1:54 AM 60.8 °F 60.8 °F 100% 29.97 in 10.0 mi NW 9.2 mph - N/A   Overcast
2:14 AM 60.8 °F 60.8 °F 100% 29.98 in 10.0 mi NW 9.2 mph - N/A   Overcast
2:34 AM 60.8 °F 60.8 °F 100% 29.97 in 10.0 mi NNW 6.9 mph - N/A   Overcast
2:54 AM 60.8 °F 59.0 °F 94% 29.98 in 10.0 mi NW 6.9 mph - N/A   Overcast
3:14 AM 60.8 °F 59.0 °F 94% 29.98 in 10.0 mi NNW 6.9 mph - N/A   Overcast
3:34 AM 60.8 °F 60.8 °F 100% 29.98 in 7.0 mi NW 5.8 mph - N/A   Drizzle
3:54 AM 60.8 °F 59.0 °F 94% 29.98 in 7.0 mi NW 6.9 mph - N/A   Light Drizzle
4:14 AM 60.8 °F 59.0 °F 94% 29.98 in 7.0 mi WNW 6.9 mph - N/A   Overcast
4:34 AM 60.8 °F 59.0 °F 94% 29.98 in 10.0 mi WNW 5.8 mph - N/A   Overcast
4:54 AM 60.8 °F 60.8 °F 100% 29.99 in 5.0 mi WNW 8.1 mph - N/A   Overcast
5:14 AM 60.8 °F 60.8 °F 100% 29.99 in 7.0 mi NW 8.1 mph - N/A   Overcast
5:34 AM 60.8 °F 59.0 °F 94% 29.98 in 10.0 mi North 6.9 mph - N/A   Overcast
5:54 AM 60.8 °F 57.2 °F 88% 29.99 in 10.0 mi Calm Calm - N/A   Overcast
6:14 AM 60.8 °F 57.2 °F 88% 30.00 in 10.0 mi ENE 3.5 mph - N/A   Overcast
6:34 AM 60.8 °F 57.2 °F 88% 30.00 in 3.0 mi East 3.5 mph - N/A   Overcast
6:53 AM 59.0 °F 57.2 °F 94% 30.01 in 1.8 mi East 4.6 mph - N/A   Overcast
7:14 AM 59.0 °F 57.2 °F 94% 30.01 in 2.0 mi East 4.6 mph - N/A   Overcast
7:34 AM 57.2 °F 57.2 °F 100% 30.01 in 1.2 mi East 4.6 mph - N/A   Overcast
7:53 AM 57.2 °F 57.2 °F 100% 30.01 in 1.2 mi East 4.6 mph - N/A   Overcast
8:14 AM 57.2 °F 57.2 °F 100% 30.01 in 1.8 mi ESE 3.5 mph - N/A   Overcast
8:34 AM 59.0 °F 57.2 °F 94% 30.02 in 2.5 mi East 3.5 mph - N/A   Overcast
8:53 AM 59.0 °F 57.2 °F 94% 30.02 in 4.0 mi East 3.5 mph - N/A   Overcast
9:14 AM 60.8 °F 57.2 °F 88% 30.02 in 3.0 mi East 3.5 mph - N/A   Overcast
9:34 AM 60.8 °F 57.2 °F 88% 30.02 in 5.0 mi Calm Calm - N/A   Overcast
9:53 AM 60.8 °F 57.2 °F 88% 30.02 in 5.0 mi ENE 4.6 mph - N/A   Overcast
10:14 AM 60.8 °F 57.2 °F 88% 30.02 in 10.0 mi ENE 4.6 mph - N/A   Overcast
10:34 AM 62.6 °F 57.2 °F 82% 30.01 in 10.0 mi East 3.5 mph - N/A   Overcast
10:53 AM 62.6 °F 57.2 °F 82% 30.01 in 10.0 mi East 5.8 mph - N/A   Overcast
11:14 AM 62.6 °F 57.2 °F 82% 30.01 in 10.0 mi East 6.9 mph - N/A   Overcast
11:53 AM 64.4 °F 55.4 °F 73% 30.01 in 10.0 mi ESE 5.8 mph - N/A   Overcast
12:14 PM 62.6 °F 55.4 °F 77% 30.02 in 10.0 mi ESE 5.8 mph - N/A   Overcast
12:34 PM 64.4 °F 55.4 °F 73% 30.02 in 10.0 mi ESE 4.6 mph - N/A   Overcast
12:54 PM 64.4 °F 55.4 °F 73% 30.02 in 10.0 mi ESE 6.9 mph - N/A   Overcast
1:14 PM 64.4 °F 55.4 °F 73% 30.02 in 10.0 mi SE 4.6 mph - N/A   Overcast
1:34 PM 64.4 °F 55.4 °F 73% 30.02 in 10.0 mi SSE 4.6 mph - N/A   Overcast
1:54 PM 64.4 °F 55.4 °F 73% 30.02 in 10.0 mi SE 3.5 mph - N/A   Overcast
2:14 PM 66.2 °F 55.4 °F 68% 30.01 in 10.0 mi SE 6.9 mph - N/A   Mostly Cloudy
2:34 PM 66.2 °F 55.4 °F 68% 30.01 in 10.0 mi ESE 3.5 mph - N/A   Scattered Clouds
2:54 PM 68.0 °F 55.4 °F 64% 30.00 in 10.0 mi ENE 3.5 mph - N/A   Mostly Cloudy
3:14 PM 68.0 °F 55.4 °F 64% 30.00 in 10.0 mi ESE 4.6 mph - N/A   Mostly Cloudy
3:34 PM 68.0 °F 55.4 °F 64% 30.00 in 10.0 mi SSE 5.8 mph - N/A   Mostly Cloudy
3:54 PM 69.8 °F 55.4 °F 60% 29.99 in 10.0 mi SE 5.8 mph - N/A   Scattered Clouds
4:14 PM 69.8 °F 55.4 °F 60% 29.99 in 10.0 mi ENE 4.6 mph - N/A   Mostly Cloudy
4:34 PM 69.8 °F 55.4 °F 60% 29.99 in 10.0 mi East 5.8 mph - N/A   Mostly Cloudy
4:54 PM 71.6 °F 55.4 °F 57% 29.98 in 10.0 mi East 4.6 mph - N/A   Mostly Cloudy
5:14 PM 69.8 °F 53.6 °F 56% 29.98 in 10.0 mi ESE 4.6 mph - N/A   Scattered Clouds
5:34 PM 69.8 °F 55.4 °F 60% 29.97 in 10.0 mi SE 5.8 mph - N/A   Mostly Cloudy
5:54 PM 71.6 °F 55.4 °F 57% 29.97 in 10.0 mi East 4.6 mph - N/A   Scattered Clouds
6:14 PM 71.6 °F 55.4 °F 57% 29.96 in 10.0 mi East 6.9 mph - N/A   Scattered Clouds
6:34 PM 71.6 °F 55.4 °F 57% 29.96 in 10.0 mi ESE 5.8 mph - N/A   Scattered Clouds
6:54 PM 69.8 °F 55.4 °F 60% 29.96 in 10.0 mi ESE 4.6 mph - N/A   Scattered Clouds
7:14 PM 69.8 °F 55.4 °F 60% 29.96 in 10.0 mi ESE 8.1 mph - N/A   Scattered Clouds
7:33 PM 69.8 °F 55.4 °F 60% 29.96 in 10.0 mi ESE 8.1 mph - N/A   Scattered Clouds
8:14 PM 69.8 °F 55.4 °F 60% 29.96 in 10.0 mi East 8.1 mph - N/A   Clear
8:33 PM 68.0 °F 55.4 °F 64% 29.96 in 10.0 mi ESE 6.9 mph - N/A   Clear
9:14 PM 66.2 °F 55.4 °F 68% 29.97 in 10.0 mi ESE 8.1 mph - N/A   Clear
9:54 PM 64.4 °F 55.4 °F 73% 29.97 in 10.0 mi ESE 8.1 mph - N/A   Clear
10:14 PM 64.4 °F 55.4 °F 73% 29.96 in 10.0 mi ESE 10.4 mph - N/A   Clear
10:33 PM 64.4 °F 55.4 °F 73% 29.96 in 10.0 mi ESE 12.7 mph - N/A   Clear
10:54 PM 62.6 °F 55.4 °F 77% 29.96 in 10.0 mi ESE 10.4 mph 16.1 mph N/A   Clear
11:14 PM 62.6 °F 55.4 °F 77% 29.97 in 10.0 mi ESE 11.5 mph 17.3 mph N/A   Clear
11:34 PM 62.6 °F 55.4 °F 77% 29.97 in 10.0 mi ESE 10.4 mph - N/A   Clear